Temp
17 17 18 19 15 14 16 18 21 23 21 22 22 19 16 16 17 17 16 17 17 17 17 17 17 17 17 17 17 16 16 16 16 16 16 16 16 16 16 16 15 15 15 15 16 16 16 15 15
17 17 18 18 14 15 16 18 20 20 21 22 21 19 17 17 16 16 17 17 17 17 17 17 17 17 16 16 16 16 16 16 16 16 16 16 16 16 16 16 15 15 15 15 15 15 15 15 14
16 17 18 13 14 16 18 20 18 20 22 22 20 19 18 16 16 16 16 16 16 16 17 17 17 16 16 16 16 16 16 16 16 16 16 16 16 16 16 16 16 16 15 15 15 15 16 15 15
16 16 17 13 15 18 20 17 20 20 22 22 20 16 16 16 16 16 16 16 17 17 16 16 16 16 16 16 16 16 16 16 16 16 16 16 16 16 16 16 16 16 15 15 15 16 16 16 16
16 17 13 14 16 19 18 20 21 19 21 20 21 16 15 15 16 16 16 16 17 16 17 17 16 16 16 16 16 16 16 16 16 16 16 16 16 16 16 16 16 16 16 15 15 16 16 16 16
16 16 13 14 17 20 20 21 21 20 21 19 18 16 15 15 16 15 15 16 16 16 16 16 16 16 16 15 16 16 16 16 16 16 15 16 16 16 16 16 16 16 15 15 16 16 16 15 16
14 12 14 15 16 19 20 21 20 19 20 19 19 15 14 15 15 15 15 16 16 16 16 16 16 16 16 15 15 15 15 15 15 15 15 15 15 15 15 15 15 16 16 15 15 15 15 15 15
16 13 17 16 15 18 19 20 19 20 18 19 19 14 14 15 15 15 16 16 15 15 15 15 15 16 16 16 15 15 15 15 15 15 15 15 15 15 15 15 15 15 15 15 15 15 15 15 15
16 13 14 16 16 16 19 18 19 19 19 18 17 18 18 16 15 15 15 15 15 15 16 16 16 16 16 15 16 16 16 16 15 15 15 14 14 14 14 14 14 14 14 15 15 15 15 15 15
14 11 15 14 15 15 18 19 19 18 18 16 16 16 16 16 15 15 15 15 16 16 16 17 17 17 17 16 16 16 16 15 15 15 15 15 14 14 14 14 14 14 14 14 14 14 14 15 15
15 13 16 14 16 19 17 18 19 18 17 17 16 16 16 16 16 16 16 16 16 16 16 17 17 16 16 16 16 16 16 15 15 15 15 14 14 14 14 14 14 14 14 14 14 14 14 14 14
13 13 14 14 16 18 16 18 18 18 17 19 19 18 16 16 16 16 16 16 16 16 16 16 16 16 16 16 16 15 15 15 15 15 15 15 14 14 14 14 14 14 13 14 14 14 14 14 14
12 13 14 14 16 16 17 15 16 16 17 17 17 17 16 16 16 16 16 16 16 16 16 16 16 16 15 15 15 15 15 15 14 14 14 14 14 13 13 14 14 14 13 13 13 13 13 13 13
14 14 14 14 15 15 16 16 17 17 17 17 16 16 16 16 16 15 15 15 15 15 15 15 15 15 15 15 15 15 14 14 14 13 13 13 12 12 12 12 12 13 13 13 13 13 12 12 13
14 12 13 14 15 13 15 15 15 17 17 17 17 17 17 16 16 16 15 15 14 14 14 14 15 15 14 14 14 14 14 13 13 12 12 12 11 11 11 11 11 12 12 12 12 12 12 12 12
15 12 11 13 14 14 14 14 16 17 17 17 16 16 16 16 16 15 15 14 14 13 13 13 14 14 14 14 13 13 13 13 12 12 12 11 10 10 10 10 10 11 11 10 10 10 11 11 11
13 12 12 13 14 14 14 14 16 16 17 16 16 16 16 17 16 16 15 15 14 14 13 14 13 13 13 13 13 13 13 13 12 11 11 10 10 10 9 9 10 10 10 10 10 9 9 10 10
13 14 14 13 13 14 13 12 12 16 16 17 18 17 17 17 17 17 16 15 14 14 14 13 12 12 12 13 13 13 12 11 11 10 10 9 9 9 8 9 9 9 9 9 9 9 9 9 9
14 14 13 12 13 12 12 11 12 15 15 15 16 17 17 17 17 17 16 14 14 14 13 12 12 12 12 13 13 13 12 12 11 11 11 10 10 9 6 7 8 8 8 8 8 8 8 9 9
12 12 12 13 13 12 11 10 11 13 15 17 17 17 17 17 17 17 15 14 13 13 12 12 12 12 12 12 12 12 12 12 11 11 10 9 9 8 7 6 8 8 8 8 8 8 8 8 8
9 10 11 12 12 13 11 10 13 15 14 16 16 17 17 16 17 16 14 13 13 13 13 12 12 12 12 12 12 12 11 11 10 10 9 9 8 8 7 6 7 8 8 8 8 7 7 7 8
11 10 12 12 8 9 10 7 10 12 12 15 16 16 16 16 14 14 14 13 14 13 13 12 12 12 12 12 12 11 11 10 10 10 9 9 8 8 8 7 7 8 8 8 8 8 7 7 8
10 11 11 11 10 7 9 5 9 10 14 14 13 16 15 15 14 13 13 13 13 13 12 12 12 12 12 12 11 11 11 11 10 9 9 8 8 8 8 8 8 8 8 8 7 8 8 7 8
10 10 10 9 7 4 9 6 7 9 14 14 13 14 14 14 13 13 13 12 12 12 12 12 12 12 12 12 11 11 11 10 10 10 9 8 8 8 8 8 8 8 8 8 7 7 7 7 7
10 8 5 6 5 6 9 5 8 11 12 13 13 13 14 13 13 12 12 12 12 12 12 12 12 12 12 12 11 11 10 10 10 10 9 9 8 8 7 7 8 8 7 7 7 8 7 7 7
10 8 5 9 7 5 8 6 8 12 13 14 14 13 13 13 12 12 12 12 12 12 12 12 12 12 12 11 11 10 10 10 10 10 9 9 8 8 7 7 7 7 7 7 7 5 6 7 6
10 6 8 4 5 4 4 7 10 11 11 12 13 13 13 13 13 12 12 12 12 12 12 12 12 12 12 11 10 10 10 9 9 9 9 9 9 8 7 6 7 7 6 6 5 6 6 7 6
9 9 6 3 7 7 5 8 7 7 11 10 10 12 13 13 13 13 13 13 13 13 13 12 13 12 12 11 11 10 9 9 9 9 9 9 9 9 7 7 7 7 6 6 5 6 7 7 7
7 7 8 7 5 5 5 5 6 9 10 11 12 13 14 14 14 13 13 13 12 12 12 12 12 11 11 11 11 10 10 9 9 9 9 9 9 9 8 7 7 7 7 6 6 6 7 7 7
8 8 7 4 7 5 5 5 10 9 11 12 12 13 13 13 13 13 13 13 12 12 12 12 12 11 11 11 10 11 10 10 9 9 9 9 9 9 9 8 7 7 6 6 6 6 6 7 7
Height
1520 1524 1527 1528 1540 1542 1545 1532 1515 1512 1518 1521 1515 1515 1530 1536 1540 1551 1549 1551 1552 1554 1554 1555 1555 1555 1556 1556 1556 1557 1557 1557 1557 1556 1556 1555 1555 1555 1555 1555 1555 1555 1554 1554 1553 1553 1552 1551 1552
1520 1523 1526 1526 1542 1550 1542 1520 1520 1515 1516 1519 1518 1523 1528 1544 1543 1546 1550 1551 1552 1553 1554 1555 1555 1555 1556 1556 1556 1556 1556 1556 1557 1556 1556 1556 1555 1555 1555 1555 1554 1554 1554 1554 1553 1552 1552 1552 1551
1519 1522 1525 1529 1539 1540 1534 1515 1517 1515 1516 1517 1522 1527 1535 1545 1547 1548 1551 1551 1552 1553 1554 1555 1555 1555 1555 1555 1556 1556 1556 1556 1556 1556 1556 1556 1555 1555 1555 1554 1554 1554 1553 1553 1553 1552 1552 1551 1550
1519 1524 1525 1534 1538 1522 1516 1515 1510 1513 1516 1518 1522 1532 1539 1544 1546 1549 1550 1551 1552 1553 1554 1555 1556 1556 1556 1556 1556 1555 1556 1555 1555 1555 1555 1555 1555 1554 1554 1553 1553 1552 1552 1552 1552 1551 1551 1550 1550
1517 1521 1530 1533 1529 1518 1513 1512 1510 1514 1518 1523 1523 1536 1541 1544 1546 1549 1549 1550 1552 1553 1554 1555 1556 1556 1556 1556 1555 1555 1555 1555 1555 1555 1554 1554 1553 1553 1553 1552 1552 1551 1551 1550 1550 1550 1550 1549 1549
1516 1518 1533 1535 1526 1516 1515 1514 1514 1516 1521 1525 1528 1534 1543 1545 1546 1547 1548 1550 1552 1553 1554 1554 1555 1555 1555 1555 1555 1554 1554 1554 1554 1554 1553 1553 1552 1552 1551 1551 1550 1550 1549 1549 1548 1548 1548 1548 1547
1514 1520 1526 1523 1524 1519 1515 1515 1516 1518 1523 1528 1530 1536 1543 1545 1546 1546 1548 1550 1552 1553 1553 1553 1553 1554 1554 1554 1554 1553 1553 1552 1552 1552 1552 1551 1550 1550 1549 1549 1548 1548 1547 1547 1546 1546 1546 1546 1545
1513 1515 1515 1518 1523 1521 1514 1516 1519 1519 1525 1528 1530 1535 1542 1542 1544 1545 1547 1550 1551 1552 1552 1552 1552 1552 1552 1552 1552 1551 1551 1550 1550 1549 1549 1549 1548 1547 1547 1546 1545 1545 1544 1544 1543 1543 1543 1543 1543
1512 1520 1524 1517 1518 1518 1515 1519 1521 1522 1524 1528 1530 1532 1533 1539 1543 1545 1547 1548 1549 1550 1551 1551 1551 1551 1551 1549 1549 1549 1548 1548 1547 1547 1546 1545 1545 1544 1543 1543 1543 1542 1541 1541 1540 1540 1540 1540 1539
1512 1523 1519 1515 1512 1513 1514 1519 1522 1525 1526 1532 1533 1534 1537 1540 1542 1544 1545 1547 1547 1548 1549 1549 1549 1549 1549 1548 1547 1547 1545 1544 1544 1543 1543 1541 1540 1540 1540 1539 1539 1538 1537 1537 1536 1536 1536 1536 1535
1513 1520 1516 1515 1510 1510 1516 1521 1524 1526 1528 1529 1533 1534 1537 1539 1541 1543 1544 1545 1546 1547 1548 1547 1547 1547 1546 1546 1545 1544 1543 1542 1541 1540 1539 1538 1537 1536 1536 1535 1535 1534 1533 1532 1532 1532 1531 1531 1530
1517 1518 1518 1518 1513 1513 1519 1522 1525 1527 1529 1528 1531 1534 1536 1537 1539 1541 1543 1543 1544 1544 1544 1544 1544 1544 1544 1543 1543 1542 1540 1539 1537 1536 1535 1534 1533 1531 1531 1530 1530 1529 1529 1528 1527 1527 1527 1526 1526
1517 1520 1520 1520 1515 1517 1521 1524 1527 1529 1530 1529 1531 1533 1535 1536 1538 1539 1540 1540 1541 1541 1542 1542 1542 1542 1541 1541 1540 1539 1537 1536 1534 1532 1530 1529 1527 1525 1524 1523 1523 1523 1523 1523 1522 1521 1521 1521 1520
1517 1519 1521 1521 1520 1521 1523 1525 1527 1529 1529 1530 1532 1533 1534 1535 1536 1538 1538 1539 1539 1539 1539 1540 1539 1539 1539 1538 1536 1534 1532 1530 1528 1526 1525 1523 1521 1519 1518 1516 1516 1516 1516 1516 1515 1515 1515 1514 1514
1519 1524 1523 1524 1523 1525 1525 1528 1527 1526 1528 1528 1529 1530 1531 1532 1534 1535 1536 1536 1536 1536 1536 1537 1537 1537 1536 1535 1533 1530 1528 1525 1523 1521 1519 1517 1516 1514 1512 1511 1510 1510 1510 1509 1508 1508 1508 1508 1508
1520 1525 1534 1528 1526 1527 1527 1532 1520 1524 1525 1526 1527 1528 1528 1529 1530 1532 1533 1533 1534 1534 1534 1534 1534 1534 1532 1531 1529 1526 1524 1522 1519 1517 1515 1513 1511 1509 1507 1506 1505 1504 1503 1502 1502 1502 1502 1501 1501
1525 1536 1532 1531 1527 1527 1527 1529 1523 1523 1524 1523 1524 1524 1525 1525 1526 1528 1530 1531 1531 1532 1531 1531 1531 1530 1529 1527 1525 1524 1522 1519 1516 1514 1512 1510 1507 1506 1504 1502 1501 1500 1498 1497 1497 1496 1497 1496 1496
1530 1529 1527 1532 1531 1527 1528 1529 1524 1522 1522 1519 1519 1520 1520 1521 1521 1523 1524 1526 1528 1528 1528 1529 1528 1528 1527 1525 1523 1521 1519 1516 1513 1510 1508 1505 1503 1502 1501 1499 1498 1497 1495 1494 1493 1493 1492 1492 1491
1519 1523 1531 1532 1531 1531 1530 1528 1522 1518 1517 1515 1513 1513 1515 1516 1518 1520 1521 1523 1524 1524 1525 1526 1526 1526 1525 1523 1521 1519 1516 1513 1511 1507 1503 1500 1499 1498 1497 1496 1495 1494 1493 1492 1491 1490 1489 1488 1488
1519 1527 1534 1532 1531 1532 1531 1527 1517 1511 1508 1506 1506 1508 1510 1513 1515 1516 1518 1519 1520 1522 1522 1523 1524 1523 1523 1521 1519 1516 1514 1511 1508 1504 1500 1497 1495 1495 1494 1493 1493 1492 1491 1491 1490 1489 1488 1486 1486
1532 1535 1536 1536 1532 1531 1534 1529 1515 1503 1502 1502 1504 1504 1507 1508 1509 1511 1513 1517 1519 1520 1520 1521 1521 1521 1520 1519 1517 1515 1511 1508 1505 1501 1498 1495 1493 1492 1491 1491 1490 1490 1490 1489 1488 1487 1486 1484 1484
1535 1536 1534 1536 1546 1554 1538 1562 1525 1512 1508 1503 1501 1503 1507 1508 1510 1511 1513 1515 1516 1517 1518 1519 1519 1519 1518 1517 1514 1512 1509 1506 1502 1499 1496 1493 1491 1489 1488 1488 1487 1487 1487 1487 1486 1485 1484 1483 1480
1539 1537 1537 1539 1545 1554 1547 1570 1529 1516 1510 1508 1504 1503 1506 1508 1509 1510 1511 1512 1514 1515 1516 1517 1517 1516 1515 1514 1511 1509 1507 1504 1501 1498 1495 1492 1488 1486 1485 1485 1485 1484 1484 1483 1483 1482 1481 1480 1479
1537 1538 1540 1543 1553 1580 1550 1561 1542 1526 1514 1509 1507 1506 1506 1506 1508 1509 1510 1511 1513 1513 1514 1515 1515 1514 1512 1511 1509 1507 1505 1503 1500 1497 1494 1491 1487 1485 1483 1482 1481 1481 1480 1480 1480 1479 1478 1477 1476
1537 1545 1572 1570 1578 1571 1548 1566 1534 1514 1512 1509 1508 1507 1506 1507 1508 1509 1510 1511 1511 1512 1512 1512 1512 1511 1510 1508 1507 1505 1503 1500 1498 1495 1492 1489 1487 1484 1482 1480 1478 1477 1476 1476 1475 1475 1474 1474 1472
1540 1546 1565 1563 1571 1573 1553 1559 1528 1511 1510 1508 1508 1508 1507 1508 1508 1509 1510 1509 1510 1510 1510 1510 1509 1508 1507 1505 1504 1502 1500 1498 1496 1493 1490 1488 1485 1483 1479 1478 1476 1474 1473 1472 1471 1472 1471 1470 1469
1541 1553 1547 1569 1570 1579 1564 1535 1516 1511 1510 1508 1506 1508 1508 1507 1507 1508 1509 1508 1508 1508 1507 1507 1506 1505 1504 1502 1500 1497 1496 1494 1492 1490 1487 1486 1484 1482 1478 1476 1472 1471 1470 1469 1468 1468 1468 1467 1466
1543 1545 1559 1568 1565 1567 1560 1542 1536 1522 1513 1510 1509 1508 1507 1506 1506 1506 1506 1506 1506 1505 1504 1503 1502 1500 1499 1497 1494 1492 1490 1489 1488 1487 1485 1482 1481 1479 1476 1474 1471 1469 1468 1467 1466 1466 1465 1465 1464
1548 1549 1546 1551 1560 1568 1569 1552 1520 1515 1511 1508 1506 1505 1504 1504 1504 1504 1503 1503 1502 1501 1499 1497 1496 1494 1492 1491 1489 1486 1484 1484 1483 1482 1481 1480 1478 1476 1474 1472 1470 1468 1467 1466 1465 1464 1463 1462 1460
1539 1540 1543 1563 1552 1555 1558 1549 1510 1509 1508 1510 1509 1507 1506 1504 1503 1501 1500 1499 1498 1497 1495 1493 1491 1488 1487 1486 1484 1481 1480 1479 1478 1477 1477 1476 1474 1473 1471 1469 1468 1466 1465 1463 1462 1461 1460 1459 1457
Wind_Speed
6 16 12 9 4 4 3 6 3 3 5 10 16 22 16 13 5 7 10 8 7 6 4 3 3 3 4 3 2 2 3 4 4 5 6 6 4 3 2 1 2 1 1 5 6 5 4 1 1
16 17 11 3 4 3 5 6 2 3 12 11 16 13 16 8 15 14 9 10 8 7 5 5 3 3 3 2 1 1 1 2 3 4 5 5 5 4 3 2 2 2 4 2 5 5 4 3 2
23 16 5 5 3 5 4 5 8 8 13 7 7 17 8 5 8 9 10 7 10 8 6 5 2 1 2 2 2 1 1 2 2 3 3 4 4 4 4 4 4 4 4 6 6 7 6 5 6
18 6 2 4 5 6 3 5 13 6 12 8 16 9 9 5 9 14 10 9 8 8 6 3 3 1 0 1 2 3 3 4 5 5 5 5 5 5 5 4 4 5 7 7 7 8 8 7 7
17 5 2 4 4 4 3 12 19 6 7 9 7 5 6 12 13 18 13 13 13 11 7 5 2 1 2 2 2 2 4 6 6 7 8 8 8 7 7 7 6 7 8 9 10 9 8 8 8
6 2 3 4 5 1 2 12 16 9 10 11 11 8 5 11 17 17 14 13 12 9 7 6 5 3 2 3 4 4 5 6 7 8 10 11 11 10 10 10 9 9 9 10 11 10 10 10 9
2 4 5 5 7 3 2 4 5 14 11 6 12 5 11 14 16 15 12 9 9 7 6 5 4 4 5 5 5 7 8 8 9 8 10 12 12 12 13 13 13 13 13 14 14 13 13 13 13
2 3 3 4 6 4 3 4 10 15 4 9 4 7 7 20 18 15 11 9 7 6 5 5 5 6 7 7 7 8 9 10 11 11 11 13 13 12 13 15 16 15 16 17 17 17 16 16 16
1 3 2 1 7 6 8 4 7 8 12 9 6 10 8 21 19 15 12 9 8 8 8 6 7 7 7 10 11 10 11 12 12 13 13 13 15 13 11 13 15 16 17 19 18 19 20 20 20
3 3 1 4 2 6 10 6 5 5 11 8 16 16 16 16 18 15 12 11 10 8 7 7 8 9 10 11 11 11 11 13 13 14 15 16 16 16 16 15 16 20 20 19 21 22 23 24 25
3 2 0 7 11 21 6 7 4 13 1 8 17 17 14 16 15 14 13 12 10 9 9 9 9 10 11 10 11 13 14 15 16 14 14 17 20 20 19 20 22 21 20 21 21 20 21 22 22
6 10 3 8 12 12 5 7 6 2 5 8 11 12 16 16 15 13 13 13 12 11 11 11 11 11 12 11 11 12 13 15 17 18 18 18 19 21 21 22 22 22 21 21 20 22 23 23 24
5 3 8 7 15 15 9 8 4 8 11 16 13 12 14 13 11 11 12 14 13 13 12 12 12 12 12 12 14 15 17 18 19 20 21 22 23 24 24 24 24 24 25 24 22 22 25 25 28
8 13 6 10 11 9 5 3 1 8 10 12 14 14 13 14 14 14 15 15 15 14 13 12 12 12 13 15 17 18 19 20 21 21 22 23 24 25 25 26 27 27 26 27 29 30 27 26 27
17 6 5 7 4 3 3 1 5 13 12 10 11 12 14 16 16 17 16 15 14 15 14 13 13 13 15 16 18 19 20 20 20 20 20 22 23 24 25 27 27 28 27 28 27 27 29 31 28
3 4 4 4 4 1 2 5 3 14 13 11 13 13 14 16 17 17 18 17 17 16 16 16 15 15 16 17 17 17 16 16 16 17 16 16 18 19 21 23 23 23 24 25 26 25 25 26 27
3 2 3 0 3 1 2 3 1 12 10 12 15 16 17 17 18 19 18 19 18 16 16 16 16 16 16 15 14 15 15 16 17 17 18 19 19 18 18 18 16 16 17 19 21 24 25 26 26
5 3 3 3 3 2 1 7 8 11 13 18 18 19 20 22 22 16 17 18 16 17 18 17 17 15 12 12 13 14 15 16 17 19 19 18 18 18 16 14 12 12 11 11 12 16 19 21 23
3 5 6 2 2 2 4 7 11 19 18 26 24 22 22 21 19 19 20 18 18 19 18 18 15 10 10 11 12 13 14 14 15 17 17 16 14 14 12 12 10 10 10 9 9 11 12 13 13
8 8 4 1 1 1 5 12 13 14 16 29 30 26 23 21 21 19 23 23 20 18 19 15 9 8 10 11 13 15 16 17 18 19 18 15 11 10 11 10 11 8 9 8 7 8 11 11 11
7 6 3 1 4 1 6 8 6 5 10 20 21 19 18 14 16 18 24 21 18 18 16 10 8 9 10 11 13 15 17 18 19 19 18 13 11 9 11 10 10 10 9 9 8 8 10 14 12
4 5 3 3 5 1 4 4 7 6 9 4 6 9 9 9 8 14 16 15 17 11 9 8 8 9 11 12 14 16 18 20 20 20 19 15 12 12 10 10 11 10 9 9 9 8 10 12 15
3 2 3 2 3 4 4 4 8 6 4 4 12 1 5 3 4 8 9 9 9 8 7 8 9 10 12 13 15 16 18 20 20 19 19 19 15 13 12 12 12 10 10 9 10 11 10 11 14
2 2 4 4 3 3 4 5 6 1 2 4 5 6 5 4 4 5 6 6 7 8 8 9 11 11 12 15 16 17 18 19 19 17 17 18 17 13 11 11 12 12 11 10 11 11 12 13 15
1 4 3 5 4 4 2 3 9 5 6 1 1 3 4 3 4 6 7 7 8 10 11 12 13 12 13 16 18 20 19 20 20 18 17 17 17 15 13 13 12 11 11 11 12 13 12 13 14
2 4 4 4 2 4 4 5 6 3 6 8 5 3 4 1 4 7 9 10 11 12 13 14 15 15 16 19 22 22 22 21 20 20 18 17 17 17 15 17 16 12 10 12 12 9 9 11 13
2 2 3 6 2 3 3 7 7 5 7 12 8 1 6 6 6 7 8 11 13 15 17 18 19 20 21 23 26 26 23 22 21 20 19 18 17 17 16 18 15 9 8 10 8 8 9 9 9
1 2 3 3 2 4 5 5 6 3 4 5 7 5 4 2 3 6 8 11 12 14 15 18 21 23 24 27 28 27 24 22 21 21 19 20 18 18 16 16 13 7 7 7 5 6 9 10 11
1 1 1 3 4 4 1 6 6 5 3 3 4 2 5 4 4 6 8 11 13 14 16 19 20 21 23 24 26 25 22 22 22 22 19 19 19 18 16 15 13 9 7 7 7 8 10 13 15
4 5 5 4 4 3 4 6 4 6 4 5 8 8 4 4 5 7 11 14 15 16 16 18 20 22 22 20 23 22 21 22 24 22 19 19 18 19 17 15 13 10 9 9 11 11 12 13 14
Wind_Direction
169 160 158 147 80 78 246 260 245 115 71 55 78 85 95 53 38 127 133 170 148 163 172 120 159 156 151 139 109 65 52 41 37 37 37 40 45 57 76 76 53 26 322 32 30 25 8 108 204
163 153 145 118 105 129 256 234 81 67 125 105 73 83 56 59 95 104 122 146 154 158 173 175 131 161 159 160 159 137 35 8 8 15 21 19 15 11 14 328 295 283 240 326 354 354 346 301 233
158 144 146 123 162 183 228 169 155 113 91 93 98 71 87 84 119 116 116 130 147 165 166 187 187 171 172 190 217 264 323 304 299 308 333 345 350 354 339 313 294 282 262 265 311 327 326 301 278
149 155 225 111 212 257 221 171 125 104 72 63 106 73 84 80 125 132 133 159 160 172 174 214 239 238 9 309 303 304 310 306 302 296 295 305 311 311 318 307 285 276 269 265 282 304 313 302 285
151 169 102 151 221 282 41 134 119 92 104 103 90 113 89 116 145 141 151 172 174 162 184 197 152 80 46 14 340 330 324 313 307 302 295 293 294 295 295 300 298 288 276 274 276 282 295 296 287
155 194 104 178 209 159 54 136 127 111 123 98 97 98 108 142 155 148 167 176 180 160 168 167 187 238 289 302 308 298 310 313 312 318 314 304 298 295 291 291 291 291 286 284 281 275 280 285 288
146 106 197 165 164 117 230 78 101 126 114 61 133 84 141 153 156 163 174 169 166 177 184 189 208 231 259 280 294 298 299 298 297 290 299 305 299 294 291 289 286 285 283 281 281 279 276 277 278
228 121 190 165 169 187 210 72 60 114 95 97 118 146 169 175 174 173 179 178 188 192 212 234 252 274 286 289 284 285 286 285 288 284 283 289 292 297 294 291 288 284 284 280 277 277 277 277 277
180 67 238 34 153 175 145 87 58 93 109 71 83 156 157 168 180 180 190 200 215 225 239 244 258 262 266 274 280 292 290 283 278 279 274 279 284 287 284 287 291 289 288 289 283 279 279 279 278
102 91 240 338 227 162 121 119 113 101 105 84 101 122 142 164 177 185 195 209 226 229 237 249 259 266 269 272 282 281 279 284 288 287 279 275 275 275 276 277 279 277 290 291 290 288 284 280 279
63 75 264 343 38 129 100 105 107 133 138 169 167 157 166 170 180 191 200 216 232 244 257 262 269 272 275 277 279 280 281 284 288 288 276 271 273 277 273 268 266 268 273 281 285 287 284 283 284
100 38 63 352 49 95 79 119 89 90 125 160 162 167 167 176 190 202 212 227 241 256 267 272 274 279 284 288 288 289 288 285 287 287 285 281 277 275 275 271 267 266 265 269 272 279 282 282 279
90 120 65 65 74 64 93 70 123 140 133 133 151 166 178 191 204 215 230 242 249 258 265 271 277 283 290 296 297 296 295 292 287 284 283 283 282 280 278 273 268 262 257 258 262 263 266 275 277
119 106 97 63 70 68 86 86 68 183 169 159 167 181 195 204 208 219 236 249 255 257 264 274 279 287 296 300 303 303 299 295 291 287 284 282 281 279 277 276 274 272 267 259 257 259 262 266 267
127 87 58 28 40 57 93 137 224 169 184 191 206 212 216 220 223 233 250 254 260 260 272 278 284 291 300 304 305 304 303 300 297 293 287 283 284 284 280 279 279 279 277 275 270 264 264 264 266
72 63 79 317 5 345 89 254 285 185 194 208 220 231 234 233 235 238 244 248 257 262 268 273 283 297 303 308 311 312 309 305 298 296 297 292 289 284 284 286 286 285 280 273 269 269 270 269 269
30 146 110 279 23 18 115 261 295 175 207 231 232 236 241 245 241 245 244 247 253 258 260 273 288 296 307 316 320 320 319 317 312 305 298 295 287 286 289 291 295 298 293 284 273 267 268 274 276
182 139 113 134 326 1 289 259 270 249 240 244 248 246 244 244 251 260 254 255 256 264 271 279 285 298 309 318 322 325 325 323 316 307 300 288 280 279 283 289 298 302 309 311 297 283 278 278 280
186 135 110 110 332 354 256 272 270 272 250 247 247 245 246 249 255 251 244 240 248 260 273 277 285 294 309 318 322 328 332 334 331 325 314 298 290 283 284 294 293 301 302 305 311 306 298 295 296
57 99 44 120 266 90 331 289 265 253 248 244 246 245 251 256 253 247 222 226 241 257 273 277 274 292 308 318 330 337 337 338 338 334 328 315 300 282 280 289 294 292 291 289 299 313 313 306 311
32 87 49 55 329 5 336 303 313 294 246 260 255 257 258 245 238 219 204 217 242 266 273 259 266 291 305 319 331 337 342 340 340 342 337 326 307 288 273 277 286 288 282 286 289 296 300 301 301
76 343 32 32 52 210 42 280 301 321 324 344 263 211 211 222 185 200 213 236 265 254 242 249 277 291 303 316 329 336 339 339 343 346 346 338 320 299 290 271 269 283 281 278 280 278 285 289 297
142 28 66 35 61 50 352 74 269 336 352 3 29 329 195 206 261 233 242 246 240 243 257 261 280 290 304 316 321 328 333 336 337 340 345 346 330 316 299 285 280 274 268 268 274 278 283 289 296
125 72 33 45 69 36 277 119 287 282 320 344 19 88 154 193 269 252 241 235 243 255 259 270 281 292 302 314 316 316 322 327 330 331 335 346 353 336 319 302 284 280 275 267 266 275 285 286 287
86 65 10 3 13 218 275 38 245 280 305 314 332 172 167 223 268 261 253 260 264 268 271 274 282 295 300 306 311 308 310 315 321 325 330 333 339 335 341 318 300 288 285 288 280 277 287 297 302
41 127 145 194 204 260 350 241 255 225 318 305 290 214 163 200 263 266 267 274 276 279 282 282 285 295 299 302 307 302 299 303 311 321 323 322 327 327 343 333 312 291 290 294 291 282 290 304 314
324 50 155 103 62 51 243 289 326 6 12 13 1 237 278 280 311 293 279 280 286 291 295 294 292 293 295 306 307 301 293 295 301 311 316 317 317 320 329 330 315 293 295 301 304 281 287 294 307
66 170 61 6 141 261 289 276 234 328 333 12 28 30 28 37 341 322 312 313 313 311 311 305 304 301 305 306 308 308 291 289 292 299 309 312 313 316 322 332 337 330 313 306 297 298 309 310 301
71 283 195 126 152 176 272 271 216 217 229 186 226 141 117 87 22 358 338 323 313 310 309 306 304 304 303 307 309 305 292 284 287 287 297 307 310 313 315 319 330 324 307 301 303 309 303 300 301
187 207 157 127 244 221 152 274 244 223 224 11 332 327 301 319 352 334 319 318 309 309 311 310 307 302 300 300 304 301 296 285 284 281 286 295 307 306 306 303 308 298 297 293 288 297 297 300 303